OK,93,34,956,93,2014-10-01T01:40:00,0,28072726,187430
OK,105,30,956,105,2014-10-01T01:45:00,2,28073173,187430
OK,114,28,956,114,2014-10-01T01:50:00,2,28073621,187430
OK,116,27,956,116,2014-10-01T01:55:00,1,28073939,187430
OK,116,27,956,116,2014-10-01T02:00:00,0,28074388,187430
OK,116,27,956,116,2014-10-01T02:05:00,0,28074829,187430
OK,56,57,956,56,2014-10-01T02:10:00,1,28075277,187430
OK,56,57,956,56,2014-10-01T02:15:00,1,28075726,187430
OK,105,30,956,105,2014-10-01T02:20:00,1,28076109,187430
OK,105,30,956,105,2014-10-01T02:25:00,1,28076558,187430
OK,107,30,956,107,2014-10-01T02:30:00,1,28077007,187430
OK,107,30,956,107,2014-10-01T02:35:00,1,28077456,187430
OK,107,30,956,107,2014-10-01T02:40:00,0,28077859,187430
OK,150,21,956,150,2014-10-01T02:45:00,1,28078308,187430
OK,121,26,956,121,2014-10-01T02:50:00,2,28078753,187430
OK,92,35,956,92,2014-10-01T02:55:00,1,28079202,187430
OK,71,45,956,71,2014-10-01T03:00:00,1,28079644,187430
OK,71,45,956,71,2014-10-01T03:05:00,1,28080093,187430
OK,71,45,956,71,2014-10-01T03:10:00,0,28080427,187430
OK,83,39,956,83,2014-10-01T03:15:00,1,28080876,187430
OK,83,39,956,83,2014-10-01T03:20:00,1,28081325,187430
OK,160,20,956,160,2014-10-01T03:25:00,2,28081772,187430
OK,160,20,956,160,2014-10-01T03:30:00,2,28082221,187430
OK,109,29,956,109,2014-10-01T03:35:00,2,28082654,187430
OK,109,29,956,109,2014-10-01T03:40:00,3,28083086,187430
OK,101,32,956,101,2014-10-01T03:45:00,2,28083535,187430
OK,101,32,956,101,2014-10-01T03:50:00,0,28083984,187430
OK,104,31,956,104,2014-10-01T03:55:00,3,28084425,187430
OK,90,36,956,90,2014-10-01T04:00:00,3,28084850,187430
OK,106,30,956,106,2014-10-01T04:05:00,3,28085299,187430
OK,107,30,956,107,2014-10-01T04:10:00,2,28085744,187430
OK,108,30,956,108,2014-10-01T04:15:00,0,28086193,187430
OK,122,26,956,122,2014-10-01T04:20:00,3,28086635,187430
OK,123,26,956,123,2014-10-01T04:25:00,5,28087084,187430
OK,123,26,956,123,2014-10-01T04:30:00,5,28087529,187430
OK,120,27,956,120,2014-10-01T04:35:00,7,28087978,187430
OK,114,28,956,114,2014-10-01T04:40:00,8,28088402,187430
OK,105,30,956,105,2014-10-01T04:45:00,10,28088851,187430
OK,98,33,956,98,2014-10-01T04:50:00,8,28089281,187430
OK,94,34,956,94,2014-10-01T04:55:00,6,28089730,187430
OK,97,33,956,97,2014-10-01T05:00:00,9,28090179,187430
OK,110,29,956,110,2014-10-01T05:05:00,15,28090525,187430
OK,110,29,956,110,2014-10-01T05:10:00,13,28090972,187430
OK,103,31,956,103,2014-10-01T05:15:00,12,28091421,187430
OK,119,27,956,119,2014-10-01T05:20:00,12,28091838,187430
OK,133,24,956,133,2014-10-01T05:25:00,9,28092287,187430
OK,124,26,956,124,2014-10-01T05:30:00,11,28092731,187430
OK,120,27,956,120,2014-10-01T05:35:00,13,28093172,187430
OK,160,20,956,160,2014-10-01T05:40:00,15,28093603,187430
OK,174,18,956,174,2014-10-01T05:45:00,19,28094052,187430
OK,180,18,956,180,2014-10-01T05:50:00,23,28094463,187430
OK,178,18,956,178,2014-10-01T05:55:00,21,28094908,187430
OK,177,18,956,177,2014-10-01T06:00:00,11,28095355,187430
OK,215,15,956,215,2014-10-01T06:05:00,12,28095804,187430
OK,220,14,956,220,2014-10-01T06:10:00,26,28096217,187430
OK,217,14,956,217,2014-10-01T06:15:00,23,28096666,187430
OK,260,12,956,260,2014-10-01T06:20:00,18,28097100,187430
OK,219,14,956,219,2014-10-01T06:25:00,26,28097549,187430
OK,205,15,956,205,2014-10-01T06:30:00,19,28097998,187430
OK,199,16,956,199,2014-10-01T06:35:00,24,28098435,187430
OK,190,17,956,190,2014-10-01T06:40:00,23,28098879,187430
OK,113,28,956,113,2014-10-01T06:45:00,16,28099327,187430
OK,117,27,956,117,2014-10-01T06:50:00,11,28099670,187430
OK,133,24,956,133,2014-10-01T06:55:00,12,28100119,187430
OK,131,24,956,131,2014-10-01T07:00:00,11,28100426,187430
OK,111,29,956,111,2014-10-01T07:05:00,12,28100875,187430
OK,110,29,956,110,2014-10-01T07:10:00,10,28101246,187430
OK,85,38,956,85,2014-10-01T07:15:00,5,28101695,187430
OK,123,26,956,123,2014-10-01T07:20:00,9,28102131,187430
OK,121,26,956,121,2014-10-01T07:25:00,15,28102580,187430
OK,114,28,956,114,2014-10-01T07:30:00,12,28103008,187430
OK,113,28,956,113,2014-10-01T07:35:00,7,28103454,187430
OK,104,31,956,104,2014-10-01T07:40:00,10,28103899,187430
OK,102,31,956,102,2014-10-01T07:45:00,13,28104344,187430
OK,132,24,956,132,2014-10-01T07:50:00,12,28104785,187430
OK,114,28,956,114,2014-10-01T07:55:00,14,28105230,187430
OK,112,28,956,112,2014-10-01T08:00:00,19,28105670,187430
OK,131,24,956,131,2014-10-01T08:05:00,18,28106119,187430
OK,132,24,956,132,2014-10-01T08:10:00,19,28106556,187430
OK,109,29,956,109,2014-10-01T08:15:00,19,28106962,187430
OK,101,32,956,101,2014-10-01T08:20:00,10,28107394,187430
OK,113,28,956,113,2014-10-01T08:25:00,16,28107843,187430
OK,121,26,956,121,2014-10-01T08:30:00,14,28108282,187430
OK,122,26,956,122,2014-10-01T08:35:00,7,28108731,187430
OK,126,25,956,126,2014-10-01T08:40:00,14,28109159,187430
OK,122,26,956,122,2014-10-01T08:45:00,13,28109608,187430
OK,104,31,956,104,2014-10-01T08:50:00,14,28109951,187430
OK,106,30,956,106,2014-10-01T08:55:00,15,28110400,187430
OK,113,28,956,113,2014-10-01T09:00:00,12,28110823,187430
OK,121,26,956,121,2014-10-01T09:05:00,19,28111272,187430
OK,127,25,956,127,2014-10-01T09:10:00,16,28111701,187430
OK,123,26,956,123,2014-10-01T09:15:00,6,28112150,187430
OK,108,30,956,108,2014-10-01T09:20:00,8,28112491,187430
OK,112,28,956,112,2014-10-01T09:25:00,12,28112940,187430
OK,135,24,956,135,2014-10-01T09:30:00,10,28113364,187430
OK,130,24,956,130,2014-10-01T09:35:00,9,28113813,187430
OK,126,25,956,126,2014-10-01T09:40:00,8,28114245,187430
OK,131,24,956,131,2014-10-01T09:45:00,13,28114694,187430
OK,121,26,956,121,2014-10-01T09:50:00,12,28115048,187430
OK,100,32,956,100,2014-10-01T09:55:00,7,28115497,187430
OK,124,26,956,124,2014-10-01T10:00:00,7,28115909,187430
OK,154,21,956,154,2014-10-01T10:05:00,13,28116358,187430
OK,150,21,956,150,2014-10-01T10:10:00,14,28116766,187430
OK,127,25,956,127,2014-10-01T10:15:00,13,28117215,187430
OK,114,28,956,114,2014-10-01T10:20:00,16,28117640,187430
OK,103,31,956,103,2014-10-01T10:25:00,12,28118089,187430
OK,119,27,956,119,2014-10-01T10:30:00,9,28118534,187430
OK,124,26,956,124,2014-10-01T10:35:00,6,28118981,187430
OK,105,30,956,105,2014-10-01T10:40:00,7,28119425,187430
OK,100,32,956,100,2014-10-01T10:45:00,8,28119873,187430
OK,109,29,956,109,2014-10-01T10:50:00,8,28120321,187430
OK,122,26,956,122,2014-10-01T10:55:00,6,28120770,187430
OK,104,31,956,104,2014-10-01T11:00:00,6,28121153,187430
OK,104,31,956,104,2014-10-01T11:05:00,12,28121602,187430
OK,110,29,956,110,2014-10-01T11:10:00,11,28122040,187430
OK,123,26,956,123,2014-10-01T11:15:00,14,28122489,187430
OK,124,26,956,124,2014-10-01T11:20:00,15,28122930,187430
OK,124,26,956,124,2014-10-01T11:25:00,11,28123379,187430
OK,110,29,956,110,2014-10-01T11:30:00,10,28123811,187430
OK,98,33,956,98,2014-10-01T11:35:00,7,28124260,187430
OK,112,28,956,112,2014-10-01T11:40:00,12,28124662,187430
OK,118,27,956,118,2014-10-01T11:45:00,15,28125111,187430
OK,116,27,956,116,2014-10-01T11:50:00,14,28125540,187430
OK,116,27,956,116,2014-10-01T11:55:00,15,28125989,187430
OK,133,24,956,133,2014-10-01T12:00:00,13,28126341,187430
OK,119,27,956,119,2014-10-01T12:05:00,12,28126790,187430
OK,116,27,956,116,2014-10-01T12:10:00,13,28127239,187430
OK,121,26,956,121,2014-10-01T12:15:00,12,28127688,187430
OK,128,25,956,128,2014-10-01T12:20:00,16,28128116,187430
OK,115,28,956,115,2014-10-01T12:25:00,16,28128565,187430
OK,119,27,956,119,2014-10-01T12:30:00,12,28129000,187430
OK,137,23,956,137,2014-10-01T12:35:00,10,28129449,187430
OK,141,23,956,141,2014-10-01T12:40:00,14,28129883,187430
OK,135,24,956,135,2014-10-01T12:45:00,12,28130332,187430
OK,122,26,956,122,2014-10-01T12:50:00,9,28130760,187430
OK,145,22,956,145,2014-10-01T12:55:00,20,28131209,187430
OK,148,21,956,148,2014-10-01T13:00:00,28,28131646,187430
OK,137,23,956,137,2014-10-01T13:05:00,19,28132095,187430
OK,117,27,956,117,2014-10-01T13:10:00,13,28132533,187430
OK,141,23,956,141,2014-10-01T13:15:00,15,28132980,187430
OK,160,20,956,160,2014-10-01T13:20:00,14,28133418,187430
OK,142,22,956,142,2014-10-01T13:25:00,19,28133867,187430
OK,131,24,956,131,2014-10-01T13:30:00,19,28134306,187430
OK,166,19,956,166,2014-10-01T13:35:00,16,28134755,187430
OK,142,22,956,142,2014-10-01T13:40:00,20,28135174,187430
OK,119,27,956,119,2014-10-01T13:45:00,21,28135623,187430
OK,142,22,956,142,2014-10-01T13:50:00,11,28136060,187430
OK,138,23,956,138,2014-10-01T13:55:00,14,28136509,187430
OK,137,23,956,137,2014-10-01T14:00:00,13,28136949,187430
OK,170,19,956,170,2014-10-01T14:05:00,5,28137398,187430
OK,146,22,956,146,2014-10-01T14:10:00,22,28137832,187430
OK,138,23,956,138,2014-10-01T14:15:00,27,28138281,187430
OK,123,26,956,123,2014-10-01T14:20:00,24,28138709,187430
OK,131,24,956,131,2014-10-01T14:25:00,14,28139158,187430
OK,133,24,956,133,2014-10-01T14:30:00,11,28139569,187430
OK,143,22,956,143,2014-10-01T14:35:00,16,28140018,187430
OK,157,20,956,157,2014-10-01T14:40:00,14,28140460,187430
OK,152,21,956,152,2014-10-01T14:45:00,10,28140909,187430
OK,129,25,956,129,2014-10-01T14:50:00,10,28141335,187430
OK,126,25,956,126,2014-10-01T14:55:00,10,28141784,187430
OK,139,23,956,139,2014-10-01T15:00:00,10,28142212,187430
OK,132,24,956,132,2014-10-01T15:05:00,11,28142661,187430
OK,116,27,956,116,2014-10-01T15:10:00,11,28143088,187430
OK,127,25,956,127,2014-10-01T15:15:00,7,28143537,187430
OK,120,27,956,120,2014-10-01T15:20:00,7,28143985,187430
OK,118,27,956,118,2014-10-01T15:25:00,8,28144434,187430
OK,124,26,956,124,2014-10-01T15:30:00,4,28144855,187430
OK,84,38,956,84,2014-10-01T15:35:00,3,28145269,187430
OK,122,26,956,122,2014-10-01T15:40:00,11,28145718,187430
OK,121,26,956,121,2014-10-01T15:45:00,12,28146167,187430
OK,109,29,956,109,2014-10-01T15:50:00,6,28146616,187430
OK,112,28,956,112,2014-10-01T15:55:00,3,28147024,187430
OK,94,34,956,94,2014-10-01T16:00:00,6,28147468,187430
OK,116,27,956,116,2014-10-01T16:05:00,11,28147917,187430
OK,138,23,956,138,2014-10-01T16:10:00,5,28148318,187430
OK,119,27,956,119,2014-10-01T16:15:00,5,28148767,187430
OK,118,27,956,118,2014-10-01T16:20:00,6,28149206,187430
OK,114,28,956,114,2014-10-01T16:25:00,3,28149655,187430
OK,110,29,956,110,2014-10-01T16:30:00,2,28150081,187430
OK,114,28,956,114,2014-10-01T16:35:00,2,28150530,187430
OK,121,26,956,121,2014-10-01T16:40:00,6,28150948,187430
OK,131,24,956,131,2014-10-01T16:45:00,5,28151397,187430
OK,106,30,956,106,2014-10-01T16:50:00,0,28151846,187430
OK,96,33,956,96,2014-10-01T17:00:00,5,28152295,187430
OK,99,32,956,99,2014-10-01T17:05:00,4,28152741,187430
OK,87,37,956,87,2014-10-01T17:10:00,5,28153188,187430
OK,142,22,956,142,2014-10-01T17:15:00,7,28153637,187430
OK,144,22,956,144,2014-10-01T17:20:00,6,28154047,187430
OK,112,28,956,112,2014-10-01T17:25:00,2,28154496,187430
OK,79,41,956,79,2014-10-01T17:30:00,3,28154938,187430
OK,127,25,956,127,2014-10-01T17:35:00,2,28155386,187430
OK,118,27,956,118,2014-10-01T17:40:00,6,28155804,187430
OK,110,29,956,110,2014-10-01T17:45:00,6,28156253,187430
OK,94,34,956,94,2014-10-01T17:50:00,4,28156702,187430
OK,106,30,956,106,2014-10-01T17:55:00,1,28157140,187430
OK,122,26,956,122,2014-10-01T18:00:00,6,28157570,187430
OK,101,32,956,101,2014-10-01T18:05:00,3,28158018,187430
OK,115,28,956,115,2014-10-01T18:10:00,1,28158462,187430
OK,120,27,956,120,2014-10-01T18:15:00,2,28158908,187430
OK,120,27,956,120,2014-10-01T18:20:00,2,28159354,187430
OK,112,28,956,112,2014-10-01T18:25:00,4,28159689,187430
OK,109,29,956,109,2014-10-01T18:30:00,7,28160138,187430
OK,117,27,956,117,2014-10-01T18:35:00,3,28160587,187430
OK,108,30,956,108,2014-10-01T18:40:00,1,28161025,187430
OK,108,30,956,108,2014-10-01T18:45:00,0,28161474,187430
OK,108,30,956,108,2014-10-01T18:50:00,0,28161891,187430
OK,108,30,956,108,2014-10-01T18:55:00,0,28162340,187430
OK,115,28,956,115,2014-10-01T19:00:00,1,28162734,187430
OK,123,26,956,123,2014-10-01T19:05:00,3,28163173,187430
OK,131,24,956,131,2014-10-01T19:10:00,3,28163621,187430
OK,78,41,956,78,2014-10-01T19:15:00,3,28164070,187430
OK,77,42,956,77,2014-10-01T19:20:00,3,28164501,187430
OK,115,28,956,115,2014-10-01T19:25:00,3,28164950,187430
OK,116,27,956,116,2014-10-01T19:30:00,2,28165375,187430
OK,103,31,956,103,2014-10-01T19:35:00,3,28165823,187430
OK,78,41,956,78,2014-10-01T19:40:00,3,28166264,187430
OK,75,43,956,75,2014-10-01T19:45:00,1,28166626,187430
OK,111,29,956,111,2014-10-01T19:50:00,1,28167075,187430
OK,140,23,956,140,2014-10-01T19:55:00,2,28167504,187430
OK,114,28,956,114,2014-10-01T20:00:00,5,28167937,187430
OK,110,29,956,110,2014-10-01T20:05:00,2,28168386,187430
OK,110,29,956,110,2014-10-01T20:10:00,0,28168831,187430
OK,81,40,956,81,2014-10-01T20:15:00,2,28169280,187430
OK,81,40,956,81,2014-10-01T20:20:00,0,28169728,187430
OK,81,40,956,81,2014-10-01T20:25:00,0,28170154,187430
OK,127,25,956,127,2014-10-01T20:30:00,3,28170599,187430
OK,120,27,956,120,2014-10-01T20:35:00,4,28171047,187430
OK,113,28,956,113,2014-10-01T20:40:00,1,28171484,187430
OK,113,28,956,113,2014-10-01T20:45:00,0,28171930,187430
OK,87,37,956,87,2014-10-01T20:50:00,1,28172378,187430
OK,79,41,956,79,2014-10-01T20:55:00,2,28172824,187430
OK,71,45,956,71,2014-10-01T21:00:00,1,28173270,187430
OK,71,45,956,71,2014-10-01T21:05:00,0,28173719,187430
OK,71,45,956,71,2014-10-01T21:10:00,0,28174160,187430
OK,71,45,956,71,2014-10-01T21:15:00,0,28174609,187430
OK,115,28,956,115,2014-10-01T21:20:00,1,28175035,187430
OK,115,28,956,115,2014-10-01T21:25:00,0,28175431,187430
OK,69,47,956,69,2014-10-01T21:30:00,1,28175880,187430
OK,95,34,956,95,2014-10-01T21:35:00,2,28176329,187430
OK,69,47,956,69,2014-10-01T21:40:00,0,28176778,187430
OK,71,45,956,71,2014-10-01T21:45:00,3,28177134,187430
OK,71,45,956,71,2014-10-01T21:50:00,3,28177574,187430
OK,68,47,956,68,2014-10-01T21:55:00,0,28178020,187430
OK,68,47,956,68,2014-10-01T22:00:00,0,28178469,187430
OK,68,47,956,68,2014-10-01T22:05:00,0,28178916,187430
OK,68,47,956,68,2014-10-01T22:10:00,0,28179350,187430
OK,68,47,956,68,2014-10-01T22:15:00,0,28179793,187430
OK,112,28,956,112,2014-10-01T22:20:00,1,28180240,187430
OK,84,38,956,84,2014-10-01T22:25:00,2,28180638,187430
OK,84,38,956,84,2014-10-01T22:30:00,0,28181087,187430
OK,121,26,956,121,2014-10-01T22:35:00,1,28181511,187430
OK,121,26,956,121,2014-10-01T22:40:00,1,28181959,187430
OK,121,26,956,121,2014-10-01T22:45:00,0,28182406,187430
OK,83,39,956,83,2014-10-01T22:50:00,1,28182855,187430
OK,106,30,956,106,2014-10-01T22:55:00,3,28183272,187430
OK,106,30,956,106,2014-10-01T23:00:00,1,28183705,187430
OK,106,30,956,106,2014-10-01T23:05:00,0,28184150,187430
OK,106,30,956,106,2014-10-01T23:10:00,0,28184599,187430
OK,106,30,956,106,2014-10-01T23:15:00,0,28185034,187430
OK,106,30,956,106,2014-10-01T23:20:00,0,28185482,187430
OK,106,30,956,106,2014-10-01T23:25:00,0,28185913,187430
OK,106,30,956,106,2014-10-01T23:30:00,0,28186305,187430
OK,106,30,956,106,2014-10-01T23:40:00,0,28187152,187430
OK,106,30,956,106,2014-10-01T23:55:00,0,28188484,187430
OK,106,30,956,106,2014-10-02T00:05:00,0,28189369,187430
OK,106,30,956,106,2014-10-02T00:10:00,0,28189791,187430
OK,106,30,956,106,2014-10-02T00:15:00,0,28190240,187430
OK,106,30,956,106,2014-10-02T00:20:00,0,28190593,187430
OK,106,30,956,106,2014-10-02T00:30:00,0,28191491,187430
OK,110,29,956,110,2014-10-02T00:35:00,1,28191797,187430
OK,110,29,956,110,2014-10-02T00:40:00,0,28192246,187430
OK,110,29,956,110,2014-10-02T00:45:00,0,28192679,187430
OK,110,29,956,110,2014-10-02T00:50:00,0,28193123,187430
OK,110,29,956,110,2014-10-02T00:55:00,0,28193490,187430
OK,110,29,956,110,2014-10-02T01:05:00,0,28194388,187430
OK,110,29,956,110,2014-10-02T01:10:00,0,28194837,187430
OK,110,29,956,110,2014-10-02T01:15:00,0,28195074,187430
OK,110,29,956,110,2014-10-02T01:25:00,0,28195971,187430
OK,110,29,956,110,2014-10-02T01:30:00,0,28196258,187430
OK,110,29,956,110,2014-10-02T01:35:00,0,28196704,187430
OK,110,29,956,110,2014-10-02T01:40:00,0,28197127,187430
OK,110,29,956,110,2014-10-02T01:45:00,0,28197576,187430
OK,110,29,956,110,2014-10-02T01:50:00,0,28198024,187430
OK,110,29,956,110,2014-10-02T01:55:00,0,28198472,187430
OK,110,29,956,110,2014-10-02T02:00:00,0,28198921,187430
OK,121,26,956,121,2014-10-02T02:05:00,0,28199293,187430
OK,121,26,956,121,2014-10-02T02:10:00,0,28199735,187430
OK,121,26,956,121,2014-10-02T02:15:00,0,28200177,187430
OK,121,26,956,121,2014-10-02T02:20:00,0,28200620,187430
OK,121,26,956,121,2014-10-02T02:25:00,0,28201069,187430
OK,121,26,956,121,2014-10-02T02:30:00,0,28201500,187430
OK,82,39,956,82,2014-10-02T02:45:00,0,28202398,187430
OK,150,21,956,150,2014-10-02T02:50:00,1,28202840,187430
OK,150,21,956,150,2014-10-02T02:55:00,0,28203288,187430
OK,150,21,956,150,2014-10-02T03:00:00,0,28203723,187430
OK,87,37,956,87,2014-10-02T03:10:00,2,28204172,187430
OK,132,24,956,132,2014-10-02T03:25:00,2,28204621,187430
OK,132,24,956,132,2014-10-02T03:30:00,0,28205070,187430
OK,90,36,956,90,2014-10-02T03:35:00,0,28205498,187430
OK,90,36,956,90,2014-10-02T03:40:00,0,28205945,187430
OK,104,31,956,104,2014-10-02T03:45:00,2,28206328,187430
OK,97,33,956,97,2014-10-02T03:55:00,0,28207226,187430
OK,98,33,956,98,2014-10-02T04:00:00,1,28207646,187430
OK,98,33,956,98,2014-10-02T04:05:00,0,28208094,187430
OK,98,33,956,98,2014-10-02T04:10:00,0,28208521,187430
OK,98,33,956,98,2014-10-02T04:15:00,0,28208970,187430
OK,98,33,956,98,2014-10-02T04:20:00,0,28209408,187430
OK,98,33,956,98,2014-10-02T04:25:00,0,28209857,187430
OK,92,35,956,92,2014-10-02T04:30:00,2,28210280,187430
OK,90,36,956,90,2014-10-02T04:35:00,1,28210729,187430
OK,157,20,956,157,2014-10-02T04:40:00,3,28211154,187430
OK,77,42,956,77,2014-10-02T04:45:00,0,28211598,187430
OK,77,42,956,77,2014-10-02T04:50:00,0,28211976,187430
OK,111,29,956,111,2014-10-02T04:55:00,6,28212425,187430
OK,99,32,956,99,2014-10-02T05:00:00,1,28212854,187430
OK,103,31,956,103,2014-10-02T05:05:00,7,28213303,187430
OK,103,31,956,103,2014-10-02T05:10:00,3,28213741,187430
OK,89,36,956,89,2014-10-02T05:15:00,6,28214190,187430
OK,83,39,956,83,2014-10-02T05:20:00,1,28214603,187430
OK,110,29,956,110,2014-10-02T05:25:00,13,28215052,187430
OK,92,35,956,92,2014-10-02T05:30:00,3,28215468,187430
OK,90,36,956,90,2014-10-02T05:35:00,0,28215917,187430
OK,161,20,956,161,2014-10-02T05:40:00,14,28216257,187430
OK,181,17,956,181,2014-10-02T05:45:00,5,28216696,187430
OK,181,17,956,181,2014-10-02T05:50:00,0,28217143,187430
OK,190,17,956,190,2014-10-02T05:55:00,27,28217592,187430
OK,210,15,956,210,2014-10-02T06:00:00,16,28218031,187430
OK,219,14,956,219,2014-10-02T06:05:00,17,28218480,187430
OK,219,14,956,219,2014-10-02T06:10:00,9,28218900,187430
OK,208,15,956,208,2014-10-02T06:15:00,18,28219349,187430
OK,211,15,956,211,2014-10-02T06:20:00,23,28219722,187430
OK,211,15,956,211,2014-10-02T06:25:00,26,28220171,187430
OK,186,17,956,186,2014-10-02T06:30:00,23,28220605,187430
OK,144,22,956,144,2014-10-02T06:35:00,14,28221054,187430
OK,113,28,956,113,2014-10-02T06:40:00,13,28221435,187430
OK,110,29,956,110,2014-10-02T06:45:00,14,28221721,187430
OK,120,27,956,120,2014-10-02T07:00:00,12,28222315,187430
OK,111,29,956,111,2014-10-02T07:05:00,8,28222764,187430
OK,95,34,956,95,2014-10-02T07:10:00,7,28223195,187430
OK,93,34,956,93,2014-10-02T07:15:00,5,28223630,187430
OK,87,37,956,87,2014-10-02T07:20:00,0,28224078,187430
OK,118,27,956,118,2014-10-02T07:25:00,12,28224433,187430
OK,137,23,956,137,2014-10-02T07:30:00,5,28224882,187430
OK,106,30,956,106,2014-10-02T07:35:00,12,28225331,187430
OK,103,31,956,103,2014-10-02T07:40:00,5,28225653,187430
OK,111,29,956,111,2014-10-02T07:50:00,13,28226543,187430
OK,90,36,956,90,2014-10-02T07:55:00,8,28226992,187430
OK,100,32,956,100,2014-10-02T08:00:00,2,28227407,187430
OK,130,24,956,130,2014-10-02T08:05:00,5,28227856,187430
OK,167,19,956,167,2014-10-02T08:10:00,0,28228215,187430
OK,116,27,956,116,2014-10-02T08:15:00,10,28228664,187430
OK,115,28,956,115,2014-10-02T08:20:00,1,28229074,187430
OK,115,28,956,115,2014-10-02T08:25:00,3,28229523,187430
OK,115,28,956,115,2014-10-02T08:30:00,0,28229873,187430
OK,117,27,956,117,2014-10-02T08:35:00,14,28230322,187430
OK,105,30,956,105,2014-10-02T08:40:00,5,28230688,187430
OK,123,26,956,123,2014-10-02T08:45:00,0,28231137,187430
OK,112,28,956,112,2014-10-02T08:50:00,11,28231560,187430
OK,102,31,956,102,2014-10-02T08:55:00,2,28232009,187430
OK,119,27,956,119,2014-10-02T09:00:00,7,28232351,187430
OK,133,24,956,133,2014-10-02T09:10:00,0,28232800,187430
OK,96,33,956,96,2014-10-02T09:15:00,6,28233249,187430
OK,94,34,956,94,2014-10-02T09:20:00,3,28233673,187430
OK,99,32,956,99,2014-10-02T09:25:00,11,28234122,187430
OK,74,43,956,74,2014-10-02T09:30:00,3,28234455,187430
OK,120,27,956,120,2014-10-02T09:40:00,0,28235331,187430
OK,120,27,956,120,2014-10-02T09:45:00,1,28235780,187430
OK,120,27,956,120,2014-10-02T09:50:00,0,28236223,187430
OK,123,26,956,123,2014-10-02T09:55:00,13,28236670,187430
OK,159,20,956,159,2014-10-02T10:00:00,5,28237073,187430
OK,160,20,956,160,2014-10-02T10:05:00,0,28237521,187430
OK,152,21,956,152,2014-10-02T10:10:00,13,28237969,187430
OK,122,26,956,122,2014-10-02T10:15:00,12,28238416,187430
OK,112,28,956,112,2014-10-02T10:20:00,15,28238857,187430
OK,112,28,956,112,2014-10-02T10:25:00,7,28239306,187430
OK,112,28,956,112,2014-10-02T10:30:00,0,28239736,187430
OK,160,20,956,160,2014-10-02T10:35:00,10,28240185,187430
OK,137,23,956,137,2014-10-02T10:40:00,16,28240629,187430
OK,138,23,956,138,2014-10-02T10:45:00,11,28241078,187430
OK,183,17,956,183,2014-10-02T10:50:00,5,28241510,187430
OK,115,28,956,115,2014-10-02T10:55:00,8,28241958,187430
OK,120,27,956,120,2014-10-02T11:00:00,4,28242354,187430
OK,97,33,956,97,2014-10-02T11:05:00,0,28242803,187430
OK,133,24,956,133,2014-10-02T11:10:00,9,28243252,187430
OK,133,24,956,133,2014-10-02T11:15:00,8,28243580,187430
OK,139,23,956,139,2014-10-02T11:20:00,10,28244015,187430
OK,138,23,956,138,2014-10-02T11:25:00,3,28244444,187430
OK,141,23,956,141,2014-10-02T11:30:00,0,28244893,187430
OK,134,24,956,134,2014-10-02T11:35:00,6,28245342,187430
OK,148,21,956,148,2014-10-02T11:40:00,2,28245748,187430
OK,148,21,956,148,2014-10-02T11:45:00,0,28246197,187430
OK,127,25,956,127,2014-10-02T11:50:00,10,28246634,187430
OK,117,27,956,117,2014-10-02T11:55:00,7,28247083,187430
OK,101,32,956,101,2014-10-02T12:00:00,4,28247529,187430
OK,100,32,956,100,2014-10-02T12:05:00,1,28247959,187430
OK,100,32,956,100,2014-10-02T12:10:00,0,28248408,187430
OK,138,23,956,138,2014-10-02T12:15:00,14,28248855,187430
OK,166,19,956,166,2014-10-02T12:20:00,10,28249283,187430
OK,145,22,956,145,2014-10-02T12:25:00,6,28249727,187430
OK,141,23,956,141,2014-10-02T12:30:00,2,28250146,187430
OK,122,26,956,122,2014-10-02T12:35:00,10,28250544,187430
OK,132,24,956,132,2014-10-02T13:20:00,16,28251869,187430
OK,134,24,956,134,2014-10-02T13:30:00,12,28252453,187430
OK,139,23,956,139,2014-10-02T13:35:00,5,28252895,187430
OK,139,23,956,139,2014-10-02T13:40:00,0,28253312,187430
OK,133,24,956,133,2014-10-02T13:45:00,10,28253761,187430
OK,153,21,956,153,2014-10-02T13:50:00,9,28254166,187430
OK,143,22,956,143,2014-10-02T13:55:00,14,28254487,187430
OK,165,19,956,165,2014-10-02T14:10:00,7,28255064,187430
OK,146,22,956,146,2014-10-02T14:15:00,17,28255513,187430
OK,153,21,956,153,2014-10-02T14:20:00,17,28255941,187430
OK,156,20,956,156,2014-10-02T14:25:00,2,28256390,187430
OK,122,26,956,122,2014-10-02T14:30:00,13,28256818,187430
OK,130,24,956,130,2014-10-02T14:35:00,6,28257267,187430
OK,121,26,956,121,2014-10-02T14:40:00,3,28257708,187430
OK,149,21,956,149,2014-10-02T14:45:00,15,28258156,187430
OK,149,21,956,149,2014-10-02T14:50:00,13,28258589,187430
OK,129,25,956,129,2014-10-02T14:55:00,6,28259035,187430
OK,133,24,956,133,2014-10-02T15:00:00,10,28259484,187430
OK,115,28,956,115,2014-10-02T15:05:00,13,28259931,187430
OK,112,28,956,112,2014-10-02T15:10:00,8,28260364,187430